Location: Bühlhof
(48.7849°N, 8.6361°E)
Time: 00:18:24
(UTC+00:00)

CZ-3 Stage 3 - Pass Details

Date: 19 January 2026
Orbit: 207 x 9476 km, 30.8° (Epoch: 8 February)

Event Time Altitude Azimuth Distance (km) Brightness Sun altitude
Rises 17:39:39 0° 242° (WSW) 8,864 9.0 -15.6°
Reaches altitude 10° 17:49:32 10° 232° (SW) 5,811 7.5 -17.2°
Maximum altitude 17:58:51 20° 194° (SSW) 2,946 5.2 -18.7°
Drops below altitude 10° 18:03:21 10° 148° (SSE) 2,558 4.5 -19.4°
Enters shadow 18:03:48 - 144° (SE) 2,604 4.5 -19.5°
